TimeEDT,TemperatureF,Dew PointF,Humidity,Sea Level PressureIn,VisibilityMPH,Wind Direction,Wind SpeedMPH,Gust SpeedMPH,PrecipitationIn,Events,Conditions,WindDirDegrees,DateUTC
12:54 AM,44.1,42.1,93,30.29,10.0,Calm,Calm,-,N/A,,Clear,0,2013-05-19 04:54:00
1:54 AM,44.1,42.1,93,30.29,10.0,Calm,Calm,-,N/A,,Clear,0,2013-05-19 05:54:00
2:54 AM,42.1,41.0,96,30.30,10.0,Calm,Calm,-,N/A,,Clear,0,2013-05-19 06:54:00
3:54 AM,42.1,39.9,92,30.31,10.0,Calm,Calm,-,N/A,,Clear,0,2013-05-19 07:54:00
4:54 AM,41.0,39.9,96,30.32,10.0,Calm,Calm,-,N/A,,Clear,0,2013-05-19 08:54:00
5:14 AM,41.0,39.2,93,30.31,1.5,Calm,Calm,-,N/A,,Partly Cloudy,0,2013-05-19 09:14:00
5:16 AM,41.0,39.2,93,30.31,0.8,Calm,Calm,-,N/A,,Mist,0,2013-05-19 09:16:00
5:26 AM,41.0,41.0,100,30.31,0.2,Calm,Calm,-,N/A,Fog,Fog,0,2013-05-19 09:26:00
5:46 AM,39.2,39.2,100,30.32,0.5,Calm,Calm,-,N/A,Fog,Fog,0,2013-05-19 09:46:00
5:54 AM,41.0,39.9,96,30.32,0.2,Calm,Calm,-,N/A,Fog,Fog,0,2013-05-19 09:54:00
6:02 AM,41.0,41.0,100,30.32,1.0,Calm,Calm,-,N/A,,Mist,0,2013-05-19 10:02:00
6:11 AM,41.0,41.0,100,30.32,3.0,Calm,Calm,-,N/A,,Mostly Cloudy,0,2013-05-19 10:11:00
6:24 AM,41.0,41.0,100,30.32,3.0,Calm,Calm,-,N/A,,Scattered Clouds,0,2013-05-19 10:24:00
6:54 AM,42.1,41.0,96,30.34,10.0,Calm,Calm,-,N/A,,Clear,0,2013-05-19 10:54:00
8:54 AM,54.0,46.9,77,30.33,10.0,Calm,Calm,-,N/A,,Clear,0,2013-05-19 12:54:00
9:54 AM,60.1,48.0,64,30.32,10.0,Calm,Calm,-,N/A,,Clear,0,2013-05-19 13:54:00
10:54 AM,64.0,48.9,58,30.31,10.0,Calm,Calm,-,N/A,,Mostly Cloudy,0,2013-05-19 14:54:00
11:54 AM,68.0,48.9,50,30.29,10.0,SE,10.4,-,N/A,,Partly Cloudy,130,2013-05-19 15:54:00
12:54 PM,66.9,51.1,57,30.27,10.0,SSE,11.5,18.4,N/A,,Mostly Cloudy,160,2013-05-19 16:54:00
1:54 PM,64.0,50.0,60,30.27,10.0,Variable,5.8,17.3,N/A,,Overcast,0,2013-05-19 17:54:00
3:54 PM,61.0,51.1,70,30.27,10.0,South,4.6,-,0.00,Rain,Light Rain,190,2013-05-19 19:54:00
4:54 PM,57.9,53.1,84,30.27,10.0,SSW,3.5,-,0.00,Rain,Light Rain,200,2013-05-19 20:54:00
5:54 PM,55.9,53.1,90,30.26,8.0,South,4.6,-,0.03,Rain,Light Rain,180,2013-05-19 21:54:00
6:29 PM,55.4,53.6,94,30.24,5.0,South,3.5,-,0.02,Rain,Light Rain,170,2013-05-19 22:29:00
6:54 PM,55.9,55.0,97,30.25,5.0,SSE,3.5,-,0.03,Rain,Light Rain,160,2013-05-19 22:54:00
7:23 PM,55.4,53.6,94,30.23,10.0,Calm,Calm,-,0.00,Rain,Light Rain,0,2013-05-19 23:23:00
7:33 PM,55.4,53.6,94,30.23,9.0,Variable,3.5,-,0.00,Rain,Light Rain,0,2013-05-19 23:33:00
7:54 PM,55.9,54.0,93,30.23,10.0,ESE,3.5,-,0.01,Rain,Light Rain,120,2013-05-19 23:54:00
8:13 PM,55.4,53.6,94,30.22,10.0,Calm,Calm,-,0.00,Rain,Light Rain,0,2013-05-20 00:13:00
8:18 PM,55.4,53.6,94,30.22,10.0,Calm,Calm,-,0.01,Rain,Light Rain,0,2013-05-20 00:18:00
8:26 PM,55.4,53.6,94,30.22,10.0,SE,3.5,-,0.01,Rain,Light Rain,130,2013-05-20 00:26:00
8:54 PM,55.0,53.1,93,30.23,10.0,Variable,3.5,-,0.02,Rain,Light Rain,0,2013-05-20 00:54:00
9:54 PM,54.0,53.1,97,30.22,10.0,Calm,Calm,-,0.01,Rain,Light Rain,0,2013-05-20 01:54:00
10:54 PM,54.0,53.1,97,30.21,10.0,ESE,3.5,-,0.00,,Overcast,110,2013-05-20 02:54:00